Year,Month,Day,Hour,Minute,Value (Times are PST for temperature in C)
2010,07,02,00,00,10.40
2010,07,02,00,01,10.40
2010,07,02,00,02,10.40
2010,07,02,00,03,10.40
2010,07,02,00,04,10.40
2010,07,02,00,05,10.40
2010,07,02,00,06,10.40
2010,07,02,00,07,10.40
2010,07,02,00,08,10.40
2010,07,02,00,09,10.40
2010,07,02,00,10,10.40
2010,07,02,00,11,10.40
2010,07,02,00,12,10.40
2010,07,02,00,13,10.40
2010,07,02,00,14,10.40
2010,07,02,00,15,10.40
2010,07,02,00,16,10.40
2010,07,02,00,17,10.40
2010,07,02,00,18,10.40
2010,07,02,00,19,10.40
2010,07,02,00,20,10.40
2010,07,02,00,21,10.40
2010,07,02,00,22,10.30
2010,07,02,00,23,10.30
2010,07,02,00,24,10.30
2010,07,02,00,25,10.30
2010,07,02,00,26,10.30
2010,07,02,00,27,10.30
2010,07,02,00,28,10.30
2010,07,02,00,29,10.30
2010,07,02,00,30,10.30
2010,07,02,00,31,10.30
2010,07,02,00,32,10.30
2010,07,02,00,33,10.30
2010,07,02,00,34,10.30
2010,07,02,00,35,10.20
2010,07,02,00,36,10.20
2010,07,02,00,37,10.20
2010,07,02,00,38,10.20
2010,07,02,00,39,10.20
2010,07,02,00,40,10.20
2010,07,02,00,41,10.20
2010,07,02,00,42,10.20
2010,07,02,00,43,10.20
2010,07,02,00,44,10.20
2010,07,02,00,45,10.20
2010,07,02,00,46,10.20
2010,07,02,00,47,10.20
2010,07,02,00,48,10.20
2010,07,02,00,49,10.20
2010,07,02,00,50,10.20
2010,07,02,00,51,10.10
2010,07,02,00,52,10.10
2010,07,02,00,53,10.10
2010,07,02,00,54,10.10
2010,07,02,00,55,10.10
2010,07,02,00,56,10.10
2010,07,02,00,57,10.10
2010,07,02,00,58,10.10
2010,07,02,00,59,10.10
2010,07,02,01,00,10.10
2010,07,02,01,01,10.10
2010,07,02,01,02,10.00
2010,07,02,01,03,10.00
2010,07,02,01,04,10.00
2010,07,02,01,05,10.00
2010,07,02,01,06,10.00
2010,07,02,01,07,10.00
2010,07,02,01,08,10.00
2010,07,02,01,09,10.00
2010,07,02,01,10,9.90
2010,07,02,01,11,9.90
2010,07,02,01,12,9.90
2010,07,02,01,13,9.90
2010,07,02,01,14,9.90
2010,07,02,01,15,9.90
2010,07,02,01,16,9.90
2010,07,02,01,17,9.90
2010,07,02,01,18,9.90
2010,07,02,01,19,9.90
2010,07,02,01,20,9.90
2010,07,02,01,21,9.90
2010,07,02,01,22,9.90
2010,07,02,01,23,9.90
2010,07,02,01,24,9.90
2010,07,02,01,25,9.80
2010,07,02,01,26,9.90
2010,07,02,01,27,9.80
2010,07,02,01,28,9.80
2010,07,02,01,29,9.80
2010,07,02,01,30,9.80
2010,07,02,01,31,9.80
2010,07,02,01,32,9.80
2010,07,02,01,33,9.80
2010,07,02,01,34,9.80
2010,07,02,01,35,9.80
2010,07,02,01,36,9.80
2010,07,02,01,37,9.80
2010,07,02,01,38,9.80
2010,07,02,01,39,9.70
2010,07,02,01,40,9.70
2010,07,02,01,41,9.70
2010,07,02,01,42,9.70
2010,07,02,01,43,9.70
2010,07,02,01,44,9.70
2010,07,02,01,45,9.70
2010,07,02,01,46,9.70
2010,07,02,01,47,9.70
2010,07,02,01,48,9.70
2010,07,02,01,49,9.70
2010,07,02,01,50,9.70
2010,07,02,01,51,9.70
2010,07,02,01,52,9.70
2010,07,02,01,53,9.70
2010,07,02,01,54,9.70
2010,07,02,01,55,9.70
2010,07,02,01,56,9.60
2010,07,02,01,57,9.60
2010,07,02,01,58,9.60
2010,07,02,01,59,9.60
2010,07,02,02,00,9.60
2010,07,02,02,01,9.60
2010,07,02,02,02,9.60
2010,07,02,02,03,9.60
2010,07,02,02,04,9.60
2010,07,02,02,05,9.60
2010,07,02,02,06,9.60
2010,07,02,02,07,9.60
2010,07,02,02,08,9.60
2010,07,02,02,09,9.60
2010,07,02,02,10,9.60
2010,07,02,02,11,9.60
2010,07,02,02,12,9.60
2010,07,02,02,13,9.50
2010,07,02,02,14,9.50
2010,07,02,02,15,9.50
2010,07,02,02,16,9.50
2010,07,02,02,17,9.50
2010,07,02,02,18,9.50
2010,07,02,02,19,9.40
2010,07,02,02,20,9.40
2010,07,02,02,21,9.40
2010,07,02,02,22,9.40
2010,07,02,02,23,9.40
2010,07,02,02,24,9.40
2010,07,02,02,25,9.40
2010,07,02,02,26,9.40
2010,07,02,02,27,9.40
2010,07,02,02,28,9.40
2010,07,02,02,29,9.30
2010,07,02,02,30,9.30
2010,07,02,02,31,9.30
2010,07,02,02,32,9.30
2010,07,02,02,33,9.30
2010,07,02,02,34,9.30
2010,07,02,02,35,9.30
2010,07,02,02,36,9.30
2010,07,02,02,37,9.20
2010,07,02,02,38,9.20
2010,07,02,02,39,9.20
2010,07,02,02,40,9.20
2010,07,02,02,41,9.20
2010,07,02,02,42,9.20
2010,07,02,02,43,9.20
2010,07,02,02,44,9.10
2010,07,02,02,45,9.10
2010,07,02,02,46,9.10
2010,07,02,02,47,9.10
2010,07,02,02,48,9.10
2010,07,02,02,49,9.10
2010,07,02,02,50,9.10
2010,07,02,02,51,9.10
2010,07,02,02,52,9.00
2010,07,02,02,53,9.00
2010,07,02,02,54,9.00
2010,07,02,02,55,9.00
2010,07,02,02,56,8.90
2010,07,02,02,57,8.90
2010,07,02,02,58,8.90
2010,07,02,02,59,8.90
2010,07,02,03,00,8.90
2010,07,02,03,01,8.90
2010,07,02,03,02,8.90
2010,07,02,03,03,8.90
2010,07,02,03,04,8.90
2010,07,02,03,05,8.80
2010,07,02,03,06,8.80
2010,07,02,03,07,8.80
2010,07,02,03,08,8.80
2010,07,02,03,09,8.80
2010,07,02,03,10,8.80
2010,07,02,03,11,8.80
2010,07,02,03,12,8.80
2010,07,02,03,13,8.80
2010,07,02,03,14,8.80
2010,07,02,03,15,8.80
2010,07,02,03,16,8.80
2010,07,02,03,17,8.70
2010,07,02,03,18,8.70
2010,07,02,03,19,8.70
2010,07,02,03,20,8.70
2010,07,02,03,21,8.70
2010,07,02,03,22,8.60
2010,07,02,03,23,8.60
2010,07,02,03,24,8.60
2010,07,02,03,25,8.50
2010,07,02,03,26,8.50
2010,07,02,03,27,8.50
2010,07,02,03,28,8.50
2010,07,02,03,29,8.50
2010,07,02,03,30,8.40
2010,07,02,03,31,8.40
2010,07,02,03,32,8.40
2010,07,02,03,33,8.40
2010,07,02,03,34,8.40
2010,07,02,03,35,8.40
2010,07,02,03,36,8.30
2010,07,02,03,37,8.30
2010,07,02,03,38,8.30
2010,07,02,03,39,8.30
2010,07,02,03,40,8.30
2010,07,02,03,41,8.30
2010,07,02,03,42,8.30
2010,07,02,03,43,8.30
2010,07,02,03,44,8.30
2010,07,02,03,45,8.30
2010,07,02,03,46,8.30
2010,07,02,03,47,8.20
2010,07,02,03,48,8.20
2010,07,02,03,49,8.20
2010,07,02,03,50,8.20
2010,07,02,03,51,8.20
2010,07,02,03,52,8.20
2010,07,02,03,53,8.20
2010,07,02,03,54,8.20
2010,07,02,03,55,8.20
2010,07,02,03,56,8.30
2010,07,02,03,57,8.30
2010,07,02,03,58,8.20
2010,07,02,03,59,8.20
2010,07,02,04,00,8.20
2010,07,02,04,01,8.20
2010,07,02,04,02,8.20
2010,07,02,04,03,8.20
2010,07,02,04,04,8.10
2010,07,02,04,05,8.20
2010,07,02,04,06,8.10
2010,07,02,04,07,8.10
2010,07,02,04,08,8.10
2010,07,02,04,09,8.10
2010,07,02,04,10,8.10
2010,07,02,04,11,8.10
2010,07,02,04,12,8.10
2010,07,02,04,13,8.00
2010,07,02,04,14,8.00
2010,07,02,04,15,8.00
2010,07,02,04,16,8.00
2010,07,02,04,17,8.00
2010,07,02,04,18,8.00
2010,07,02,04,19,7.90
2010,07,02,04,20,7.90
2010,07,02,04,21,7.90
2010,07,02,04,22,7.90
2010,07,02,04,23,7.90
2010,07,02,04,24,7.90
2010,07,02,04,25,7.80
2010,07,02,04,26,7.80
2010,07,02,04,27,7.80
2010,07,02,04,28,7.80
2010,07,02,04,29,7.80
2010,07,02,04,30,7.80
2010,07,02,04,31,7.80
2010,07,02,04,32,7.80
2010,07,02,04,33,7.80
2010,07,02,04,34,7.80
2010,07,02,04,35,7.80
2010,07,02,04,36,7.80
2010,07,02,04,37,7.80
2010,07,02,04,38,7.80
2010,07,02,04,39,7.80
2010,07,02,04,40,7.80
2010,07,02,04,41,7.80
2010,07,02,04,42,7.80
2010,07,02,04,43,7.90
2010,07,02,04,44,7.90
2010,07,02,04,45,7.90
2010,07,02,04,46,7.90
2010,07,02,04,47,7.90
2010,07,02,04,48,7.90
2010,07,02,04,49,7.90
2010,07,02,04,50,7.90
2010,07,02,04,51,7.90
2010,07,02,04,52,7.90
2010,07,02,04,53,7.90
2010,07,02,04,54,7.90
2010,07,02,04,55,7.90
2010,07,02,04,56,7.90
2010,07,02,04,57,7.90
2010,07,02,04,58,7.90
2010,07,02,04,59,7.90
2010,07,02,05,00,7.90
2010,07,02,05,01,7.90
2010,07,02,05,02,7.90
2010,07,02,05,03,7.90
2010,07,02,05,04,7.90
2010,07,02,05,05,7.90
2010,07,02,05,06,7.90
2010,07,02,05,07,7.80
2010,07,02,05,08,7.80
2010,07,02,05,09,7.80
2010,07,02,05,10,7.80
2010,07,02,05,11,7.80
2010,07,02,05,12,7.80
2010,07,02,05,13,7.90
2010,07,02,05,14,7.90
2010,07,02,05,15,7.90
2010,07,02,05,16,7.90
2010,07,02,05,17,7.90
2010,07,02,05,18,7.90
2010,07,02,05,19,7.90
2010,07,02,05,20,7.90
2010,07,02,05,21,8.00
2010,07,02,05,22,8.00
2010,07,02,05,23,8.00
2010,07,02,05,24,8.00
2010,07,02,05,25,8.00
2010,07,02,05,26,8.00
2010,07,02,05,27,8.00
2010,07,02,05,28,8.10
2010,07,02,05,29,8.00
2010,07,02,05,30,8.00
2010,07,02,05,31,8.00
2010,07,02,05,32,8.00
2010,07,02,05,33,8.00
2010,07,02,05,34,8.00
2010,07,02,05,35,8.00
2010,07,02,05,36,8.00
2010,07,02,05,37,8.00
2010,07,02,05,38,8.00
2010,07,02,05,39,8.00
2010,07,02,05,40,8.00
2010,07,02,05,41,8.00
2010,07,02,05,42,8.00
2010,07,02,05,43,8.00
2010,07,02,05,44,8.00
2010,07,02,05,45,7.90
2010,07,02,05,46,7.90
2010,07,02,05,47,8.00
2010,07,02,05,48,8.00
2010,07,02,05,49,8.00
2010,07,02,05,50,8.00
2010,07,02,05,51,8.00
2010,07,02,05,52,8.00
2010,07,02,05,53,8.00
2010,07,02,05,54,8.10
2010,07,02,05,55,8.10
2010,07,02,05,56,8.10
2010,07,02,05,57,8.10
2010,07,02,05,58,8.10
2010,07,02,05,59,8.10
2010,07,02,06,00,8.10
2010,07,02,06,01,8.10
2010,07,02,06,02,8.20
2010,07,02,06,03,8.20
2010,07,02,06,04,8.20
2010,07,02,06,05,8.20
2010,07,02,06,06,8.20
2010,07,02,06,07,8.30
2010,07,02,06,08,8.30
2010,07,02,06,09,8.30
2010,07,02,06,10,8.30
2010,07,02,06,11,8.40
2010,07,02,06,12,8.40
2010,07,02,06,13,8.40
2010,07,02,06,14,8.40
2010,07,02,06,15,8.50
2010,07,02,06,16,8.50
2010,07,02,06,17,8.60
2010,07,02,06,18,8.60
2010,07,02,06,19,8.60
2010,07,02,06,20,8.60
2010,07,02,06,21,8.70
2010,07,02,06,22,8.70
2010,07,02,06,23,8.70
2010,07,02,06,24,8.70
2010,07,02,06,25,8.70
2010,07,02,06,26,8.70
2010,07,02,06,27,8.70
2010,07,02,06,28,8.80
2010,07,02,06,29,8.80
2010,07,02,06,30,8.80
2010,07,02,06,31,8.80
2010,07,02,06,32,8.80
2010,07,02,06,33,8.80
2010,07,02,06,34,8.90
2010,07,02,06,35,8.90
2010,07,02,06,36,8.90
2010,07,02,06,37,8.90
2010,07,02,06,38,8.90
2010,07,02,06,39,9.00
2010,07,02,06,40,9.00
2010,07,02,06,41,9.00
2010,07,02,06,42,9.10
2010,07,02,06,43,9.10
2010,07,02,06,44,9.10
2010,07,02,06,45,9.10
2010,07,02,06,46,9.10
2010,07,02,06,47,9.10
2010,07,02,06,48,9.20
2010,07,02,06,49,9.20
2010,07,02,06,50,9.20
2010,07,02,06,51,9.20
2010,07,02,06,52,9.20
2010,07,02,06,53,9.30
2010,07,02,06,54,9.30
2010,07,02,06,55,9.30
2010,07,02,06,56,9.30
2010,07,02,06,57,9.30
2010,07,02,06,58,9.40
2010,07,02,06,59,9.40
2010,07,02,07,00,9.40
2010,07,02,07,01,9.40
2010,07,02,07,02,9.40
2010,07,02,07,03,9.40
2010,07,02,07,04,9.50
2010,07,02,07,05,9.50
2010,07,02,07,06,9.50
2010,07,02,07,07,9.60
2010,07,02,07,08,9.50
2010,07,02,07,09,9.60
2010,07,02,07,10,9.60
2010,07,02,07,11,9.60
2010,07,02,07,12,9.60
2010,07,02,07,13,9.60
2010,07,02,07,14,9.70
2010,07,02,07,15,9.70
2010,07,02,07,16,9.70
2010,07,02,07,17,9.70
2010,07,02,07,18,9.70
2010,07,02,07,19,9.70
2010,07,02,07,20,9.80
2010,07,02,07,21,9.80
2010,07,02,07,22,9.80
2010,07,02,07,23,9.80
2010,07,02,07,24,9.80
2010,07,02,07,25,9.80
2010,07,02,07,26,9.80
2010,07,02,07,27,9.80
2010,07,02,07,28,9.80
2010,07,02,07,29,9.80
2010,07,02,07,30,9.90
2010,07,02,07,31,9.90
2010,07,02,07,32,9.90
2010,07,02,07,33,9.90
2010,07,02,07,34,9.90
2010,07,02,07,35,9.90
2010,07,02,07,36,9.90
2010,07,02,07,37,9.90
2010,07,02,07,38,9.90
2010,07,02,07,39,9.90
2010,07,02,07,40,10.00
2010,07,02,07,41,10.00
2010,07,02,07,42,10.10
2010,07,02,07,43,10.10
2010,07,02,07,44,10.10
2010,07,02,07,45,10.10
2010,07,02,07,46,10.10
2010,07,02,07,47,10.10
2010,07,02,07,48,10.10
2010,07,02,07,49,10.10
2010,07,02,07,50,10.10
2010,07,02,07,51,10.10
2010,07,02,07,52,10.20
2010,07,02,07,53,10.20
2010,07,02,07,54,10.20
2010,07,02,07,55,10.20
2010,07,02,07,56,10.30
2010,07,02,07,57,10.30
2010,07,02,07,58,10.30
2010,07,02,07,59,10.30
2010,07,02,08,00,10.30
2010,07,02,08,01,10.40
2010,07,02,08,02,10.40
2010,07,02,08,03,10.50
2010,07,02,08,04,10.50
2010,07,02,08,05,10.60
2010,07,02,08,06,10.70
2010,07,02,08,07,10.70
2010,07,02,08,08,10.80
2010,07,02,08,09,10.90
2010,07,02,08,10,10.90
2010,07,02,08,11,10.90
2010,07,02,08,12,11.00
2010,07,02,08,13,11.00
2010,07,02,08,14,11.00
2010,07,02,08,15,11.10
2010,07,02,08,16,11.10
2010,07,02,08,17,11.20
2010,07,02,08,18,11.30
2010,07,02,08,19,11.30
2010,07,02,08,20,11.40
2010,07,02,08,21,11.40
2010,07,02,08,22,11.50
2010,07,02,08,23,11.60
2010,07,02,08,24,11.60
2010,07,02,08,25,11.70
2010,07,02,08,26,11.70
2010,07,02,08,27,11.70
2010,07,02,08,28,11.80
2010,07,02,08,29,11.80
2010,07,02,08,30,11.80
2010,07,02,08,31,11.90
2010,07,02,08,32,11.90
2010,07,02,08,33,11.90
2010,07,02,08,34,12.00
2010,07,02,08,35,12.10
2010,07,02,08,36,12.10
2010,07,02,08,37,12.10
2010,07,02,08,38,12.10
2010,07,02,08,39,12.10
2010,07,02,08,40,12.10
2010,07,02,08,41,12.10
2010,07,02,08,42,12.10
2010,07,02,08,43,12.10
2010,07,02,08,44,12.10
2010,07,02,08,45,12.20
2010,07,02,08,46,12.20
2010,07,02,08,47,12.20
2010,07,02,08,48,12.20
2010,07,02,08,49,12.30
2010,07,02,08,50,12.40
2010,07,02,08,51,12.40
2010,07,02,08,52,12.50
2010,07,02,08,53,12.60
2010,07,02,08,54,12.60
2010,07,02,08,55,12.70
2010,07,02,08,56,12.70
2010,07,02,08,57,12.70
2010,07,02,08,58,12.80
2010,07,02,08,59,12.80
2010,07,02,09,00,12.90
2010,07,02,09,01,12.90
2010,07,02,09,02,13.00
2010,07,02,09,03,13.10
2010,07,02,09,04,13.10
2010,07,02,09,05,13.20
2010,07,02,09,06,13.20
2010,07,02,09,07,13.20
2010,07,02,09,08,13.30
2010,07,02,09,09,13.30
2010,07,02,09,10,13.40
2010,07,02,09,11,13.40
2010,07,02,09,12,13.40
2010,07,02,09,13,13.40
2010,07,02,09,14,13.40
2010,07,02,09,15,13.50
2010,07,02,09,16,13.60
2010,07,02,09,17,13.60
2010,07,02,09,18,13.60
2010,07,02,09,19,13.60
2010,07,02,09,20,13.60
2010,07,02,09,21,13.70
2010,07,02,09,22,13.70
2010,07,02,09,23,13.70
2010,07,02,09,24,13.70
2010,07,02,09,25,13.70
2010,07,02,09,26,13.70
2010,07,02,09,27,13.70
2010,07,02,09,28,13.70
2010,07,02,09,29,13.80
2010,07,02,09,30,13.80
2010,07,02,09,31,13.80
2010,07,02,09,32,13.80
2010,07,02,09,33,13.80
2010,07,02,09,34,13.80
2010,07,02,09,35,13.90
2010,07,02,09,36,13.90
2010,07,02,09,37,13.90
2010,07,02,09,38,13.90
2010,07,02,09,39,13.80
2010,07,02,09,40,13.90
2010,07,02,09,41,13.90
2010,07,02,09,42,13.90
2010,07,02,09,43,13.90
2010,07,02,09,44,13.90
2010,07,02,09,45,13.90
2010,07,02,09,46,14.00
2010,07,02,09,47,14.00
2010,07,02,09,48,14.10
2010,07,02,09,49,14.10
2010,07,02,09,50,14.10
2010,07,02,09,51,14.20
2010,07,02,09,52,14.20
2010,07,02,09,53,14.30
2010,07,02,09,54,14.30
2010,07,02,09,55,14.40
2010,07,02,09,56,14.50
2010,07,02,09,57,14.60
2010,07,02,09,58,14.70
2010,07,02,09,59,14.80
2010,07,02,10,00,14.90
2010,07,02,10,01,15.00
2010,07,02,10,02,15.00
2010,07,02,10,03,15.00
2010,07,02,10,04,15.00
2010,07,02,10,05,15.00
2010,07,02,10,06,15.00
2010,07,02,10,07,15.00
2010,07,02,10,08,15.00
2010,07,02,10,09,15.00
2010,07,02,10,10,15.00
2010,07,02,10,11,15.00
2010,07,02,10,12,15.10
2010,07,02,10,13,15.20
2010,07,02,10,14,15.30
2010,07,02,10,15,15.40
2010,07,02,10,16,15.50
2010,07,02,10,17,15.50
2010,07,02,10,18,15.60
2010,07,02,10,19,15.70
2010,07,02,10,20,15.70
2010,07,02,10,21,15.80
2010,07,02,10,22,15.80
2010,07,02,10,23,15.80
2010,07,02,10,24,15.80
2010,07,02,10,25,15.80
2010,07,02,10,26,15.80
2010,07,02,10,27,15.80
2010,07,02,10,28,15.80
2010,07,02,10,29,15.80
2010,07,02,10,30,15.80
2010,07,02,10,31,15.80
2010,07,02,10,32,15.80
2010,07,02,10,33,15.80
2010,07,02,10,34,15.80
2010,07,02,10,35,15.80
2010,07,02,10,36,15.90
2010,07,02,10,37,15.90
2010,07,02,10,38,15.90
2010,07,02,10,39,16.00
2010,07,02,10,40,16.00
2010,07,02,10,41,16.00
2010,07,02,10,42,16.10
2010,07,02,10,43,16.10
2010,07,02,10,44,16.20
2010,07,02,10,45,16.20
2010,07,02,10,46,16.30
2010,07,02,10,47,16.30
2010,07,02,10,48,16.30
2010,07,02,10,49,16.30
2010,07,02,10,50,16.30
2010,07,02,10,51,16.40
2010,07,02,10,52,16.50
2010,07,02,10,53,16.60
2010,07,02,10,54,16.70
2010,07,02,10,55,16.80
2010,07,02,10,56,16.80
2010,07,02,10,57,16.80
2010,07,02,10,58,16.80
2010,07,02,10,59,16.80
2010,07,02,11,00,16.80
2010,07,02,11,01,16.80
2010,07,02,11,02,16.70
2010,07,02,11,03,16.70
2010,07,02,11,04,16.70
2010,07,02,11,05,16.70
2010,07,02,11,06,16.70
2010,07,02,11,07,16.70
2010,07,02,11,08,16.70
2010,07,02,11,09,16.70
2010,07,02,11,10,16.70
2010,07,02,11,11,16.80
2010,07,02,11,12,16.80
2010,07,02,11,13,16.90
2010,07,02,11,14,16.90
2010,07,02,11,15,17.00
2010,07,02,11,16,17.10
2010,07,02,11,17,17.10
2010,07,02,11,18,17.20
2010,07,02,11,19,17.20
2010,07,02,11,20,17.30
2010,07,02,11,21,17.30
2010,07,02,11,22,17.30
2010,07,02,11,23,17.30
2010,07,02,11,24,17.30
2010,07,02,11,25,17.30
2010,07,02,11,26,17.20
2010,07,02,11,27,17.10
2010,07,02,11,28,16.90
2010,07,02,11,29,16.70
2010,07,02,11,30,16.40
2010,07,02,11,31,16.30
2010,07,02,11,32,16.20
2010,07,02,11,33,16.10
2010,07,02,11,34,16.00
2010,07,02,11,35,15.90
2010,07,02,11,36,15.90
2010,07,02,11,37,15.90
2010,07,02,11,38,15.80
2010,07,02,11,39,15.80
2010,07,02,11,40,15.80
2010,07,02,11,41,15.90
2010,07,02,11,42,16.00
2010,07,02,11,43,16.00
2010,07,02,11,44,16.10
2010,07,02,11,45,16.10
2010,07,02,11,46,16.20
2010,07,02,11,47,16.30
2010,07,02,11,48,16.40
2010,07,02,11,49,16.50
2010,07,02,11,50,16.60
2010,07,02,11,51,16.70
2010,07,02,11,52,16.80
2010,07,02,11,53,16.90
2010,07,02,11,54,16.90
2010,07,02,11,55,17.00
2010,07,02,11,56,17.20
2010,07,02,11,57,17.30
2010,07,02,11,58,17.40
2010,07,02,11,59,17.50
2010,07,02,12,00,17.60
2010,07,02,12,01,17.70
2010,07,02,12,02,17.80
2010,07,02,12,03,17.90
2010,07,02,12,04,17.90
2010,07,02,12,05,18.00
2010,07,02,12,06,18.10
2010,07,02,12,07,18.10
2010,07,02,12,08,18.10
2010,07,02,12,09,18.10
2010,07,02,12,10,18.20
2010,07,02,12,11,18.20
2010,07,02,12,12,18.10
2010,07,02,12,13,18.00
2010,07,02,12,14,18.00
2010,07,02,12,15,18.10
2010,07,02,12,16,18.10
2010,07,02,12,17,18.10
2010,07,02,12,18,18.10
2010,07,02,12,19,18.10
2010,07,02,12,20,18.10
2010,07,02,12,21,18.10
2010,07,02,12,22,18.00
2010,07,02,12,23,17.80
2010,07,02,12,24,17.70
2010,07,02,12,25,17.60
2010,07,02,12,26,17.40
2010,07,02,12,27,17.40
2010,07,02,12,28,17.30
2010,07,02,12,29,17.10
2010,07,02,12,30,17.00
2010,07,02,12,31,16.90
2010,07,02,12,32,16.70
2010,07,02,12,33,16.50
2010,07,02,12,34,16.50
2010,07,02,12,35,16.30
2010,07,02,12,36,16.20
2010,07,02,12,37,16.20
2010,07,02,12,38,16.10
2010,07,02,12,39,16.10
2010,07,02,12,40,16.10
2010,07,02,12,41,16.10
2010,07,02,12,42,16.10
2010,07,02,12,43,16.20
2010,07,02,12,44,16.40
2010,07,02,12,45,16.50
2010,07,02,12,46,16.60
2010,07,02,12,47,16.70
2010,07,02,12,48,16.80
2010,07,02,12,49,16.90
2010,07,02,12,50,17.10
2010,07,02,12,51,17.20
2010,07,02,12,52,17.30
2010,07,02,12,53,17.40
2010,07,02,12,54,17.40
2010,07,02,12,55,17.50
2010,07,02,12,56,17.50
2010,07,02,12,57,17.50
2010,07,02,12,58,17.50
2010,07,02,12,59,17.50
2010,07,02,13,00,17.50
2010,07,02,13,01,17.60
2010,07,02,13,02,17.60
2010,07,02,13,03,17.60
2010,07,02,13,04,17.60
2010,07,02,13,05,17.60
2010,07,02,13,06,17.60
2010,07,02,13,07,17.70
2010,07,02,13,08,17.70
2010,07,02,13,09,17.70
2010,07,02,13,10,17.80
2010,07,02,13,11,17.90
2010,07,02,13,12,17.90
2010,07,02,13,13,18.00
2010,07,02,13,14,18.00
2010,07,02,13,15,18.00
2010,07,02,13,16,17.90
2010,07,02,13,17,17.90
2010,07,02,13,18,17.90
2010,07,02,13,19,17.80
2010,07,02,13,20,17.70
2010,07,02,13,21,17.60
2010,07,02,13,22,17.50
2010,07,02,13,23,17.40
2010,07,02,13,24,17.30
2010,07,02,13,25,17.20
2010,07,02,13,26,17.20
2010,07,02,13,27,17.20
2010,07,02,13,28,17.10
2010,07,02,13,29,17.00
2010,07,02,13,30,16.90
2010,07,02,13,31,16.80
2010,07,02,13,32,16.70
2010,07,02,13,33,16.70
2010,07,02,13,34,16.50
2010,07,02,13,35,16.50
2010,07,02,13,36,16.40
2010,07,02,13,37,16.40
2010,07,02,13,38,16.40
2010,07,02,13,39,16.40
2010,07,02,13,40,16.50
2010,07,02,13,41,16.50
2010,07,02,13,42,16.60
2010,07,02,13,43,16.60
2010,07,02,13,44,16.50
2010,07,02,13,45,16.50
2010,07,02,13,46,16.40
2010,07,02,13,47,16.40
2010,07,02,13,48,16.40
2010,07,02,13,49,16.30
2010,07,02,13,50,16.30
2010,07,02,13,51,16.20
2010,07,02,13,52,16.20
2010,07,02,13,53,16.20
2010,07,02,13,54,16.20
2010,07,02,13,55,16.20
2010,07,02,13,56,16.20
2010,07,02,13,57,16.10
2010,07,02,13,58,16.20
2010,07,02,13,59,16.20
2010,07,02,14,00,16.20
2010,07,02,14,01,16.20
2010,07,02,14,02,16.20
2010,07,02,14,03,16.20
2010,07,02,14,04,16.20
2010,07,02,14,05,16.30
2010,07,02,14,06,16.30
2010,07,02,14,07,16.40
2010,07,02,14,08,16.40
2010,07,02,14,09,16.40
2010,07,02,14,10,16.50
2010,07,02,14,11,16.50
2010,07,02,14,12,16.50
2010,07,02,14,13,16.60
2010,07,02,14,14,16.60
2010,07,02,14,15,16.60
2010,07,02,14,16,16.60
2010,07,02,14,17,16.60
2010,07,02,14,18,16.60
2010,07,02,14,19,16.60
2010,07,02,14,20,16.70
2010,07,02,14,21,16.60
2010,07,02,14,22,16.50
2010,07,02,14,23,16.50
2010,07,02,14,24,16.50
2010,07,02,14,25,16.50
2010,07,02,14,26,16.50
2010,07,02,14,27,16.50
2010,07,02,14,28,16.60
2010,07,02,14,29,16.70
2010,07,02,14,30,16.70
2010,07,02,14,31,16.80
2010,07,02,14,32,16.90
2010,07,02,14,33,16.90
2010,07,02,14,34,17.00
2010,07,02,14,35,17.10
2010,07,02,14,36,17.20
2010,07,02,14,37,17.30
2010,07,02,14,38,17.40
2010,07,02,14,39,17.40
2010,07,02,14,40,17.50
2010,07,02,14,41,17.50
2010,07,02,14,42,17.40
2010,07,02,14,43,17.40
2010,07,02,14,44,17.30
2010,07,02,14,45,17.30
2010,07,02,14,46,17.20
2010,07,02,14,47,17.20
2010,07,02,14,48,17.20
2010,07,02,14,49,17.10
2010,07,02,14,50,17.10
2010,07,02,14,51,17.00
2010,07,02,14,52,17.00
2010,07,02,14,53,17.00
2010,07,02,14,54,16.90
2010,07,02,14,55,16.90
2010,07,02,14,56,16.90
2010,07,02,14,57,16.90
2010,07,02,14,58,16.90
2010,07,02,14,59,17.00
2010,07,02,15,00,17.10
2010,07,02,15,01,17.20
2010,07,02,15,02,17.30
2010,07,02,15,03,17.50
2010,07,02,15,04,17.60
2010,07,02,15,05,17.70
2010,07,02,15,06,17.80
2010,07,02,15,07,17.70
2010,07,02,15,08,17.70
2010,07,02,15,09,17.70
2010,07,02,15,10,17.80
2010,07,02,15,11,17.80
2010,07,02,15,12,17.90
2010,07,02,15,13,18.00
2010,07,02,15,14,18.10
2010,07,02,15,15,18.20
2010,07,02,15,16,18.20
2010,07,02,15,17,18.30
2010,07,02,15,18,18.30
2010,07,02,15,19,18.30
2010,07,02,15,20,18.30
2010,07,02,15,21,18.30
2010,07,02,15,22,18.30
2010,07,02,15,23,18.30
2010,07,02,15,24,18.30
2010,07,02,15,25,18.40
2010,07,02,15,26,18.40
2010,07,02,15,27,18.40
2010,07,02,15,28,18.50
2010,07,02,15,29,18.50
2010,07,02,15,30,18.60
2010,07,02,15,31,18.60
2010,07,02,15,32,18.70
2010,07,02,15,33,18.70
2010,07,02,15,34,18.70
2010,07,02,15,35,18.60
2010,07,02,15,36,18.60
2010,07,02,15,37,18.60
2010,07,02,15,38,18.60
2010,07,02,15,39,18.60
2010,07,02,15,40,18.60
2010,07,02,15,41,18.70
2010,07,02,15,42,18.70
2010,07,02,15,43,18.70
2010,07,02,15,44,18.70
2010,07,02,15,45,18.80
2010,07,02,15,46,18.90
2010,07,02,15,47,19.00
2010,07,02,15,48,19.10
2010,07,02,15,49,19.20
2010,07,02,15,50,19.20
2010,07,02,15,51,19.20
2010,07,02,15,52,19.20
2010,07,02,15,53,19.10
2010,07,02,15,54,19.10
2010,07,02,15,55,19.00
2010,07,02,15,56,19.00
2010,07,02,15,57,18.90
2010,07,02,15,58,18.90
2010,07,02,15,59,18.80
2010,07,02,16,00,18.80
2010,07,02,16,01,18.70
2010,07,02,16,02,18.70
2010,07,02,16,03,18.70
2010,07,02,16,04,18.70
2010,07,02,16,05,18.80
2010,07,02,16,06,18.80
2010,07,02,16,07,18.80
2010,07,02,16,08,18.80
2010,07,02,16,09,18.80
2010,07,02,16,10,18.80
2010,07,02,16,11,18.90
2010,07,02,16,12,19.00
2010,07,02,16,13,19.00
2010,07,02,16,14,19.10
2010,07,02,16,15,19.00
2010,07,02,16,16,18.90
2010,07,02,16,17,18.90
2010,07,02,16,18,18.90
2010,07,02,16,19,18.80
2010,07,02,16,20,18.80
2010,07,02,16,21,18.80
2010,07,02,16,22,18.80
2010,07,02,16,23,18.80
2010,07,02,16,24,18.80
2010,07,02,16,25,18.90
2010,07,02,16,26,18.90
2010,07,02,16,27,18.90
2010,07,02,16,28,19.00
2010,07,02,16,29,18.90
2010,07,02,16,30,18.90
2010,07,02,16,31,18.90
2010,07,02,16,32,18.90
2010,07,02,16,33,18.90
2010,07,02,16,34,18.90
2010,07,02,16,35,19.00
2010,07,02,16,36,19.10
2010,07,02,16,37,19.20
2010,07,02,16,38,19.30
2010,07,02,16,39,19.30
2010,07,02,16,40,19.40
2010,07,02,16,41,19.40
2010,07,02,16,42,19.40
2010,07,02,16,43,19.50
2010,07,02,16,44,19.50
2010,07,02,16,45,19.60
2010,07,02,16,46,19.60
2010,07,02,16,47,19.70
2010,07,02,16,48,19.70
2010,07,02,16,49,19.70
2010,07,02,16,50,19.70
2010,07,02,16,51,19.70
2010,07,02,16,52,19.80
2010,07,02,16,53,19.80
2010,07,02,16,54,19.70
2010,07,02,16,55,19.50
2010,07,02,16,56,19.40
2010,07,02,16,57,19.40
2010,07,02,16,58,19.40
2010,07,02,16,59,19.40
2010,07,02,17,00,19.40
2010,07,02,17,01,19.50
2010,07,02,17,02,19.60
2010,07,02,17,03,19.60
2010,07,02,17,04,19.70
2010,07,02,17,05,19.80
2010,07,02,17,06,19.80
2010,07,02,17,07,19.70
2010,07,02,17,08,19.50
2010,07,02,17,09,19.30
2010,07,02,17,10,19.20
2010,07,02,17,11,19.10
2010,07,02,17,12,19.00
2010,07,02,17,13,18.90
2010,07,02,17,14,18.80
2010,07,02,17,15,18.80
2010,07,02,17,16,18.70
2010,07,02,17,17,18.70
2010,07,02,17,18,18.70
2010,07,02,17,19,18.70
2010,07,02,17,20,18.60
2010,07,02,17,21,18.50
2010,07,02,17,22,18.40
2010,07,02,17,23,18.40
2010,07,02,17,24,18.30
2010,07,02,17,25,18.30
2010,07,02,17,26,18.30
2010,07,02,17,27,18.20
2010,07,02,17,28,18.20
2010,07,02,17,29,18.20
2010,07,02,17,30,18.20
2010,07,02,17,31,18.20
2010,07,02,17,32,18.30
2010,07,02,17,33,18.30
2010,07,02,17,34,18.30
2010,07,02,17,35,18.40
2010,07,02,17,36,18.40